Regional Weather Roundup
Issued by NWS

Home | Current Version | Previous Version | Graphics & Text | Print | Product List | Glossary On
Versions: 1 2 3 4 5 6 7 8 9 10 11 12 13 14 15 16 17 18 19 20 21 22 23 24 25 26 27 28 29 30 31 32 33 34 35 36 37 38 39 40 41 42 43 44 45 46 47 48 49 50
000
ASUS43 KOAX 230402
RWRNE

WEATHER ROUNDUP FOR NEBRASKA
NATIONAL WEATHER SERVICE OMAHA NE
1000 PM CST WED FEB 22 2017

NOTES: SATELLITE DATA IS BEING USED TO AUGMENT CLOUD COVER ABOVE
       12000 FEET.
       "FAIR" INDICATES FEW OR NO CLOUDS BELOW 12,000 FEET WITH NO
       SIGNIFICANT WEATHER AND/OR OBSTRUCTIONS TO VISIBILITY.

  * THESE STATIONS DO NOT REPORT WEATHER SUCH AS RAIN...SNOW OR FOG.

NEZ001>004-019>022-054>056-230500-
NEBRASKA PANHANDLE

CITY           SKY/WX    TMP DP  RH WIND       PRES   REMARKS
SCOTTSBLUFF    CLOUDY    44  25  47 N14       29.80F
ALLIANCE       CLOUDY    40  31  70 NE17      29.81S WCI  31
CHADRON        MOCLDY    36  28  73 NE15      29.88S WCI  27
KIMBALL        CLOUDY    40  26  57 N13       29.78S WCI  33
SIDNEY         CLEAR     39  16  39 NE9       29.78S WCI  33
$$

NEZ057>060-069>072-079>082-230500-
SOUTHWEST NEBRASKA

CITY           SKY/WX    TMP DP  RH WIND       PRES   REMARKS
NORTH PLATTE   CLEAR     43  24  47 NE14      29.77S
IMPERIAL       CLEAR     39  21  48 NE9       29.75S WCI  33
LEXINGTON      CLEAR     44  29  56 NE10      29.76F
MCCOOK         CLEAR     42  23  46 E6        29.73S
OGALLALA       MOCLDY    43  24  46 NE7       29.77S
$$

NEZ005>010-023>029-035>040-094-230500-
NORTH CENTRAL NEBRASKA

CITY           SKY/WX    TMP DP  RH WIND       PRES   REMARKS
VALENTINE      CLOUDY    36  30  79 N16       29.90R WCI  26
AINSWORTH      MOCLDY    35  33  90 N14       29.89R WCI  26
BROKEN BOW     CLEAR     46  30  53 N10       29.79R
O`NEILL        CLEAR     42  37  83 N10       29.86R
ORD            CLEAR     42  30  62 N8        29.80R
THEDFORD       CLOUDY    42  36  79 N15       29.85R
$$

NEZ041-046>049-061>064-073>077-083>087-230500-
SOUTH CENTRAL NEBRASKA

CITY           SKY/WX    TMP DP  RH WIND       PRES   REMARKS
GRAND ISLAND   CLEAR     43  33  68 E8        29.79S
AURORA         CLEAR     40  31  71 NE6       29.78S
HASTINGS       CLEAR     46  31  55 NE10      29.77F
HEBRON         CLEAR     49  33  54 NE9       29.75F
HOLDREGE       CLEAR     44  28  54 NE10      29.76R
KEARNEY *      CLEAR     39  27  60 NE10      29.77S WCI  32
YORK           CLEAR     41  32  70 NE10      29.79R
$$

NEZ011>018-030>034-042>045-230500-
NORTHEAST NEBRASKA

CITY           SKY/WX    TMP DP  RH WIND       PRES   REMARKS
NORFOLK        CLEAR     44  36  73 N9        29.80R
ALBION         CLEAR     48  35  59 N12       29.80S
BLAIR          CLEAR     51  40  68 N13G18    29.78S
FREMONT        CLEAR     44  36  73 CALM      29.80R
TEKAMAH        CLEAR     45  38  76 N6        29.80R
WAYNE          PTCLDY    43  39  86 N9        29.82R
$$

NEZ050>053-065>068-078-088>093-230500-
SOUTHEAST NEBRASKA

CITY           SKY/WX    TMP DP  RH WIND       PRES   REMARKS
LINCOLN        CLEAR     49  34  56 N10       29.79R
OMAHA EPPLEY   CLEAR     46  36  68 CALM      29.79R
BEATRICE       CLEAR     51  34  52 NE12      29.76R
FALLS CITY     CLEAR     56  37  49 N8        29.73R
NEBRASKA CITY  CLEAR     53  29  40 N14G20    29.76R
PLATTSMOUTH    CLEAR     54  34  46 N9G17     29.77R
$$

NEZ044-045-051>053-067-230500-
OMAHA AREA

CITY           SKY/WX    TMP DP  RH WIND       PRES   REMARKS
OMAHA EPPLEY   CLEAR     46  36  68 CALM      29.79R
BLAIR          CLEAR     51  40  68 N13G18    29.78S
FREMONT        CLEAR     44  36  73 CALM      29.80R
MILLARD        CLEAR     55  41  59 N7        29.79R
OFFUTT AFB     CLEAR     52  38  58 N8        29.78R
PLATTSMOUTH    CLEAR     54  34  46 N9G17     29.77R
WAHOO          FAIR      42  33  72 N9        29.80R
$$



USA.gov is the U.S. government's official web portal to all federal, state and local government web resources and services.